Year,Month,Day,Hour,Minute,Value (Times are PST for windgust in km/hr)
2013,09,29,00,00,3.20
2013,09,29,00,01,1.60
2013,09,29,00,02,3.20
2013,09,29,00,03,4.80
2013,09,29,00,04,6.40
2013,09,29,00,05,8.10
2013,09,29,00,06,8.10
2013,09,29,00,07,9.60
2013,09,29,00,08,8.10
2013,09,29,00,09,8.10
2013,09,29,00,10,8.10
2013,09,29,00,11,8.10
2013,09,29,00,12,4.80
2013,09,29,00,13,3.20
2013,09,29,00,14,4.80
2013,09,29,00,15,4.80
2013,09,29,00,16,6.40
2013,09,29,00,17,6.40
2013,09,29,00,18,6.40
2013,09,29,00,19,4.80
2013,09,29,00,20,9.60
2013,09,29,00,21,9.60
2013,09,29,00,22,9.60
2013,09,29,00,23,6.40
2013,09,29,00,24,4.80
2013,09,29,00,25,6.40
2013,09,29,00,26,3.20
2013,09,29,00,27,4.80
2013,09,29,00,28,6.40
2013,09,29,00,29,4.80
2013,09,29,00,30,6.40
2013,09,29,00,31,8.10
2013,09,29,00,32,4.80
2013,09,29,00,33,3.20
2013,09,29,00,34,4.80
2013,09,29,00,35,4.80
2013,09,29,00,36,3.20
2013,09,29,00,37,1.60
2013,09,29,00,38,3.20
2013,09,29,00,39,3.20
2013,09,29,00,40,1.60
2013,09,29,00,41,3.20
2013,09,29,00,42,3.20
2013,09,29,00,43,11.30
2013,09,29,00,44,11.30
2013,09,29,00,45,9.60
2013,09,29,00,46,11.30
2013,09,29,00,47,8.10
2013,09,29,00,48,8.10
2013,09,29,00,49,6.40
2013,09,29,00,50,9.60
2013,09,29,00,51,6.40
2013,09,29,00,52,6.40
2013,09,29,00,53,3.20
2013,09,29,00,54,3.20
2013,09,29,00,55,6.40
2013,09,29,00,56,4.80
2013,09,29,00,57,4.80
2013,09,29,00,58,1.60
2013,09,29,00,59,3.20
2013,09,29,01,00,3.20
2013,09,29,01,01,1.60
2013,09,29,01,02,8.10
2013,09,29,01,03,6.40
2013,09,29,01,04,6.40
2013,09,29,01,05,8.10
2013,09,29,01,06,8.10
2013,09,29,01,07,6.40
2013,09,29,01,08,8.10
2013,09,29,01,09,8.10
2013,09,29,01,10,8.10
2013,09,29,01,11,9.60
2013,09,29,01,12,8.10
2013,09,29,01,13,9.60
2013,09,29,01,14,14.50
2013,09,29,01,15,12.90
2013,09,29,01,16,11.30
2013,09,29,01,17,11.30
2013,09,29,01,18,12.90
2013,09,29,01,19,11.30
2013,09,29,01,20,17.70
2013,09,29,01,21,17.70
2013,09,29,01,22,11.30
2013,09,29,01,23,9.60
2013,09,29,01,24,17.70
2013,09,29,01,25,16.10
2013,09,29,01,26,17.70
2013,09,29,01,27,11.30
2013,09,29,01,28,14.50
2013,09,29,01,29,16.10
2013,09,29,01,30,12.90
2013,09,29,01,31,19.30
2013,09,29,01,32,14.50
2013,09,29,01,33,19.30
2013,09,29,01,34,17.70
2013,09,29,01,35,17.70
2013,09,29,01,36,14.50
2013,09,29,01,37,17.70
2013,09,29,01,38,19.30
2013,09,29,01,39,19.30
2013,09,29,01,40,16.10
2013,09,29,01,41,12.90
2013,09,29,01,42,17.70
2013,09,29,01,43,16.10
2013,09,29,01,44,16.10
2013,09,29,01,45,19.30
2013,09,29,01,46,20.90
2013,09,29,01,47,14.50
2013,09,29,01,48,17.70
2013,09,29,01,49,16.10
2013,09,29,01,50,19.30
2013,09,29,01,51,19.30
2013,09,29,01,52,16.10
2013,09,29,01,53,19.30
2013,09,29,01,54,32.20
2013,09,29,01,55,30.60
2013,09,29,01,56,19.30
2013,09,29,01,57,16.10
2013,09,29,01,58,16.10
2013,09,29,01,59,19.30
2013,09,29,02,00,16.10
2013,09,29,02,01,19.30
2013,09,29,02,02,24.20
2013,09,29,02,03,19.30
2013,09,29,02,04,19.30
2013,09,29,02,05,17.70
2013,09,29,02,06,16.10
2013,09,29,02,07,14.50
2013,09,29,02,08,11.30
2013,09,29,02,09,4.80
2013,09,29,02,10,6.40
2013,09,29,02,11,6.40
2013,09,29,02,12,3.20
2013,09,29,02,13,3.20
2013,09,29,02,14,1.60
2013,09,29,02,16,1.60
2013,09,29,02,19,1.60
2013,09,29,02,20,3.20
2013,09,29,02,21,3.20
2013,09,29,02,22,3.20
2013,09,29,02,23,6.40
2013,09,29,02,24,6.40
2013,09,29,02,25,3.20
2013,09,29,02,26,6.40
2013,09,29,02,27,4.80
2013,09,29,02,28,4.80
2013,09,29,02,29,11.30
2013,09,29,02,30,11.30
2013,09,29,02,31,9.60
2013,09,29,02,32,8.10
2013,09,29,02,33,11.30
2013,09,29,02,34,8.10
2013,09,29,02,35,6.40
2013,09,29,02,36,6.40
2013,09,29,02,37,6.40
2013,09,29,02,38,3.20
2013,09,29,02,39,3.20
2013,09,29,02,40,3.20
2013,09,29,02,41,6.40
2013,09,29,02,42,4.80
2013,09,29,02,43,6.40
2013,09,29,02,44,6.40
2013,09,29,02,45,9.60
2013,09,29,02,46,9.60
2013,09,29,02,47,9.60
2013,09,29,02,48,9.60
2013,09,29,02,49,4.80
2013,09,29,02,50,1.60
2013,09,29,02,51,4.80
2013,09,29,02,52,4.80
2013,09,29,02,53,9.60
2013,09,29,02,54,9.60
2013,09,29,02,55,6.40
2013,09,29,02,56,4.80
2013,09,29,02,57,4.80
2013,09,29,02,58,4.80
2013,09,29,02,59,4.80
2013,09,29,03,00,3.20
2013,09,29,03,01,4.80
2013,09,29,03,02,4.80
2013,09,29,03,03,4.80
2013,09,29,03,04,3.20
2013,09,29,03,05,1.60
2013,09,29,03,06,3.20
2013,09,29,03,07,4.80
2013,09,29,03,08,6.40
2013,09,29,03,09,4.80
2013,09,29,03,10,3.20
2013,09,29,03,11,4.80
2013,09,29,03,12,4.80
2013,09,29,03,13,4.80
2013,09,29,03,14,9.60
2013,09,29,03,15,6.40
2013,09,29,03,16,6.40
2013,09,29,03,17,4.80
2013,09,29,03,18,4.80
2013,09,29,03,19,3.20
2013,09,29,03,20,3.20
2013,09,29,03,21,4.80
2013,09,29,03,22,8.10
2013,09,29,03,23,12.90
2013,09,29,03,24,12.90
2013,09,29,03,25,4.80
2013,09,29,03,26,6.40
2013,09,29,03,27,11.30
2013,09,29,03,28,11.30
2013,09,29,03,29,8.10
2013,09,29,03,30,8.10
2013,09,29,03,31,9.60
2013,09,29,03,32,6.40
2013,09,29,03,33,8.10
2013,09,29,03,34,8.10
2013,09,29,03,35,8.10
2013,09,29,03,36,8.10
2013,09,29,03,37,8.10
2013,09,29,03,38,8.10
2013,09,29,03,39,9.60
2013,09,29,03,40,6.40
2013,09,29,03,41,4.80
2013,09,29,03,42,12.90
2013,09,29,03,43,8.10
2013,09,29,03,44,6.40
2013,09,29,03,45,8.10
2013,09,29,03,46,8.10
2013,09,29,03,47,6.40
2013,09,29,03,48,6.40
2013,09,29,03,49,4.80
2013,09,29,03,50,4.80
2013,09,29,03,51,3.20
2013,09,29,03,52,3.20
2013,09,29,03,53,1.60
2013,09,29,03,54,1.60
2013,09,29,03,55,3.20
2013,09,29,03,56,1.60
2013,09,29,03,57,1.60
2013,09,29,03,58,3.20
2013,09,29,03,59,4.80
2013,09,29,04,00,6.40
2013,09,29,04,01,4.80
2013,09,29,04,02,4.80
2013,09,29,04,03,1.60
2013,09,29,04,04,1.60
2013,09,29,04,05,4.80
2013,09,29,04,06,6.40
2013,09,29,04,07,4.80
2013,09,29,04,08,8.10
2013,09,29,04,09,6.40
2013,09,29,04,10,9.60
2013,09,29,04,11,9.60
2013,09,29,04,12,9.60
2013,09,29,04,13,6.40
2013,09,29,04,14,4.80
2013,09,29,04,15,6.40
2013,09,29,04,16,4.80
2013,09,29,04,17,3.20
2013,09,29,04,18,3.20
2013,09,29,04,19,3.20
2013,09,29,04,20,3.20
2013,09,29,04,21,3.20
2013,09,29,04,22,3.20
2013,09,29,04,23,3.20
2013,09,29,04,24,4.80
2013,09,29,04,25,3.20
2013,09,29,04,26,4.80
2013,09,29,04,27,4.80
2013,09,29,04,28,3.20
2013,09,29,04,29,4.80
2013,09,29,04,30,4.80
2013,09,29,04,31,4.80
2013,09,29,04,32,4.80
2013,09,29,04,33,4.80
2013,09,29,04,34,6.40
2013,09,29,04,35,6.40
2013,09,29,04,36,6.40
2013,09,29,04,37,8.10
2013,09,29,04,38,8.10
2013,09,29,04,39,6.40
2013,09,29,04,40,8.10
2013,09,29,04,41,8.10
2013,09,29,04,42,6.40
2013,09,29,04,43,6.40
2013,09,29,04,44,8.10
2013,09,29,04,45,8.10
2013,09,29,04,46,8.10
2013,09,29,04,47,8.10
2013,09,29,04,48,8.10
2013,09,29,04,49,6.40
2013,09,29,04,50,8.10
2013,09,29,04,51,9.60
2013,09,29,04,52,6.40
2013,09,29,04,53,8.10
2013,09,29,04,54,8.10
2013,09,29,04,55,6.40
2013,09,29,04,56,9.60
2013,09,29,04,57,11.30
2013,09,29,04,58,9.60
2013,09,29,04,59,9.60
2013,09,29,05,00,8.10
2013,09,29,05,01,8.10
2013,09,29,05,02,8.10
2013,09,29,05,03,9.60
2013,09,29,05,04,8.10
2013,09,29,05,05,6.40
2013,09,29,05,06,3.20
2013,09,29,05,07,3.20
2013,09,29,05,08,3.20
2013,09,29,05,09,3.20
2013,09,29,05,10,1.60
2013,09,29,05,11,1.60
2013,09,29,05,12,3.20
2013,09,29,05,13,6.40
2013,09,29,05,14,6.40
2013,09,29,05,15,4.80
2013,09,29,05,16,4.80
2013,09,29,05,17,3.20
2013,09,29,05,18,4.80
2013,09,29,05,19,3.20
2013,09,29,05,20,1.60
2013,09,29,05,21,3.20
2013,09,29,05,22,1.60
2013,09,29,05,23,1.60
2013,09,29,05,24,1.60
2013,09,29,05,25,1.60
2013,09,29,05,26,1.60
2013,09,29,05,27,1.60
2013,09,29,05,28,3.20
2013,09,29,05,29,4.80
2013,09,29,05,30,4.80
2013,09,29,05,31,4.80
2013,09,29,05,32,3.20
2013,09,29,05,33,3.20
2013,09,29,05,34,3.20
2013,09,29,05,35,6.40
2013,09,29,05,36,3.20
2013,09,29,05,37,4.80
2013,09,29,05,38,3.20
2013,09,29,05,39,1.60
2013,09,29,05,40,6.40
2013,09,29,05,41,4.80
2013,09,29,05,42,6.40
2013,09,29,05,43,6.40
2013,09,29,05,44,6.40
2013,09,29,05,45,4.80
2013,09,29,05,46,8.10
2013,09,29,05,47,9.60
2013,09,29,05,48,9.60
2013,09,29,05,49,11.30
2013,09,29,05,50,12.90
2013,09,29,05,51,11.30
2013,09,29,05,52,9.60
2013,09,29,05,53,12.90
2013,09,29,05,54,9.60
2013,09,29,05,55,8.10
2013,09,29,05,56,9.60
2013,09,29,05,57,8.10
2013,09,29,05,58,8.10
2013,09,29,05,59,8.10
2013,09,29,06,00,6.40
2013,09,29,06,01,6.40
2013,09,29,06,02,4.80
2013,09,29,06,03,6.40
2013,09,29,06,04,6.40
2013,09,29,06,05,4.80
2013,09,29,06,06,3.20
2013,09,29,06,07,6.40
2013,09,29,06,08,6.40
2013,09,29,06,09,3.20
2013,09,29,06,10,1.60
2013,09,29,06,11,3.20
2013,09,29,06,12,3.20
2013,09,29,06,13,3.20
2013,09,29,06,14,1.60
2013,09,29,06,15,1.60
2013,09,29,06,16,3.20
2013,09,29,06,17,3.20
2013,09,29,06,18,3.20
2013,09,29,06,19,4.80
2013,09,29,06,20,4.80
2013,09,29,06,21,4.80
2013,09,29,06,22,3.20
2013,09,29,06,23,4.80
2013,09,29,06,24,4.80
2013,09,29,06,25,6.40
2013,09,29,06,26,6.40
2013,09,29,06,27,6.40
2013,09,29,06,28,6.40
2013,09,29,06,29,6.40
2013,09,29,06,30,6.40
2013,09,29,06,31,6.40
2013,09,29,06,32,6.40
2013,09,29,06,33,9.60
2013,09,29,06,34,6.40
2013,09,29,06,35,6.40
2013,09,29,06,36,4.80
2013,09,29,06,37,4.80
2013,09,29,06,38,4.80
2013,09,29,06,39,4.80
2013,09,29,06,40,4.80
2013,09,29,06,41,3.20
2013,09,29,06,42,3.20
2013,09,29,06,43,3.20
2013,09,29,06,44,3.20
2013,09,29,06,45,3.20
2013,09,29,06,46,6.40
2013,09,29,06,47,4.80
2013,09,29,06,48,3.20
2013,09,29,06,49,3.20
2013,09,29,06,50,3.20
2013,09,29,06,51,4.80
2013,09,29,06,52,4.80
2013,09,29,06,53,4.80
2013,09,29,06,54,3.20
2013,09,29,06,55,3.20
2013,09,29,06,56,1.60
2013,09,29,06,57,1.60
2013,09,29,06,58,1.60
2013,09,29,06,59,1.60
2013,09,29,07,00,3.20
2013,09,29,07,01,3.20
2013,09,29,07,02,3.20
2013,09,29,07,03,3.20
2013,09,29,07,04,3.20
2013,09,29,07,05,3.20
2013,09,29,07,06,3.20
2013,09,29,07,07,3.20
2013,09,29,07,08,3.20
2013,09,29,07,09,3.20
2013,09,29,07,10,1.60
2013,09,29,07,11,3.20
2013,09,29,07,12,3.20
2013,09,29,07,13,3.20
2013,09,29,07,14,3.20
2013,09,29,07,15,3.20
2013,09,29,07,16,3.20
2013,09,29,07,17,1.60
2013,09,29,07,18,4.80
2013,09,29,07,19,4.80
2013,09,29,07,20,6.40
2013,09,29,07,21,4.80
2013,09,29,07,22,6.40
2013,09,29,07,23,4.80
2013,09,29,07,24,3.20
2013,09,29,07,25,3.20
2013,09,29,07,26,4.80
2013,09,29,07,27,4.80
2013,09,29,07,28,6.40
2013,09,29,07,29,6.40
2013,09,29,07,30,6.40
2013,09,29,07,31,4.80
2013,09,29,07,32,3.20
2013,09,29,07,33,1.60
2013,09,29,07,34,1.60
2013,09,29,07,35,3.20
2013,09,29,07,36,4.80
2013,09,29,07,37,3.20
2013,09,29,07,38,3.20
2013,09,29,07,39,3.20
2013,09,29,07,40,3.20
2013,09,29,07,41,3.20
2013,09,29,07,42,1.60
2013,09,29,07,43,1.60
2013,09,29,07,44,3.20
2013,09,29,07,45,3.20
2013,09,29,07,46,3.20
2013,09,29,07,47,3.20
2013,09,29,07,48,3.20
2013,09,29,07,49,3.20
2013,09,29,07,50,4.80
2013,09,29,07,51,4.80
2013,09,29,07,52,4.80
2013,09,29,07,53,4.80
2013,09,29,07,54,4.80
2013,09,29,07,55,4.80
2013,09,29,07,56,3.20
2013,09,29,07,57,4.80
2013,09,29,07,58,4.80
2013,09,29,07,59,3.20
2013,09,29,08,00,3.20
2013,09,29,08,01,1.60
2013,09,29,08,02,1.60
2013,09,29,08,03,3.20
2013,09,29,08,04,4.80
2013,09,29,08,05,6.40
2013,09,29,08,06,6.40
2013,09,29,08,07,6.40
2013,09,29,08,08,6.40
2013,09,29,08,09,4.80
2013,09,29,08,10,6.40
2013,09,29,08,11,6.40
2013,09,29,08,12,6.40
2013,09,29,08,13,4.80
2013,09,29,08,14,6.40
2013,09,29,08,15,3.20
2013,09,29,08,16,1.60
2013,09,29,08,17,3.20
2013,09,29,08,18,3.20
2013,09,29,08,19,3.20
2013,09,29,08,20,3.20
2013,09,29,08,21,3.20
2013,09,29,08,22,3.20
2013,09,29,08,23,6.40
2013,09,29,08,24,8.10
2013,09,29,08,25,6.40
2013,09,29,08,26,8.10
2013,09,29,08,27,8.10
2013,09,29,08,28,9.60
2013,09,29,08,29,9.60
2013,09,29,08,30,8.10
2013,09,29,08,31,6.40
2013,09,29,08,32,6.40
2013,09,29,08,33,6.40
2013,09,29,08,34,8.10
2013,09,29,08,35,9.60
2013,09,29,08,36,9.60
2013,09,29,08,37,6.40
2013,09,29,08,38,11.30
2013,09,29,08,39,11.30
2013,09,29,08,40,12.90
2013,09,29,08,41,12.90
2013,09,29,08,42,14.50
2013,09,29,08,43,16.10
2013,09,29,08,44,16.10
2013,09,29,08,45,14.50
2013,09,29,08,46,16.10
2013,09,29,08,47,16.10
2013,09,29,08,48,14.50
2013,09,29,08,49,14.50
2013,09,29,08,50,11.30
2013,09,29,08,51,11.30
2013,09,29,08,52,11.30
2013,09,29,08,53,9.60
2013,09,29,08,54,9.60
2013,09,29,08,55,8.10
2013,09,29,08,56,6.40
2013,09,29,08,57,4.80
2013,09,29,08,58,4.80
2013,09,29,08,59,6.40
2013,09,29,09,00,4.80
2013,09,29,09,01,1.60
2013,09,29,09,02,3.20
2013,09,29,09,03,1.60
2013,09,29,09,04,3.20
2013,09,29,09,05,1.60
2013,09,29,09,06,1.60
2013,09,29,09,07,3.20
2013,09,29,09,08,3.20
2013,09,29,09,09,1.60
2013,09,29,09,10,1.60
2013,09,29,09,11,3.20
2013,09,29,09,12,3.20
2013,09,29,09,14,1.60
2013,09,29,09,15,1.60
2013,09,29,09,16,3.20
2013,09,29,09,17,3.20
2013,09,29,09,18,3.20
2013,09,29,09,19,4.80
2013,09,29,09,20,4.80
2013,09,29,09,21,6.40
2013,09,29,09,22,6.40
2013,09,29,09,23,6.40
2013,09,29,09,24,6.40
2013,09,29,09,25,6.40
2013,09,29,09,26,6.40
2013,09,29,09,27,4.80
2013,09,29,09,28,4.80
2013,09,29,09,29,4.80
2013,09,29,09,30,4.80
2013,09,29,09,31,3.20
2013,09,29,09,32,3.20
2013,09,29,09,34,1.60
2013,09,29,09,37,1.60
2013,09,29,09,40,1.60
2013,09,29,09,41,3.20
2013,09,29,09,42,4.80
2013,09,29,09,43,6.40
2013,09,29,09,44,3.20
2013,09,29,09,45,1.60
2013,09,29,09,46,3.20
2013,09,29,09,47,3.20
2013,09,29,09,48,4.80
2013,09,29,09,49,3.20
2013,09,29,09,50,1.60
2013,09,29,09,51,3.20
2013,09,29,09,52,3.20
2013,09,29,09,53,3.20
2013,09,29,09,54,4.80
2013,09,29,09,55,3.20
2013,09,29,09,56,3.20
2013,09,29,09,57,1.60
2013,09,29,09,58,1.60
2013,09,29,09,59,3.20
2013,09,29,10,00,1.60
2013,09,29,10,01,3.20
2013,09,29,10,02,1.60
2013,09,29,10,03,6.40
2013,09,29,10,04,1.60
2013,09,29,10,05,1.60
2013,09,29,10,06,4.80
2013,09,29,10,07,3.20
2013,09,29,10,08,4.80
2013,09,29,10,09,4.80
2013,09,29,10,10,9.60
2013,09,29,10,11,6.40
2013,09,29,10,12,6.40
2013,09,29,10,13,11.30
2013,09,29,10,14,9.60
2013,09,29,10,15,9.60
2013,09,29,10,16,4.80
2013,09,29,10,17,3.20
2013,09,29,10,18,6.40
2013,09,29,10,19,4.80
2013,09,29,10,20,3.20
2013,09,29,10,21,1.60
2013,09,29,10,22,8.10
2013,09,29,10,23,3.20
2013,09,29,10,24,6.40
2013,09,29,10,25,4.80
2013,09,29,10,26,8.10
2013,09,29,10,27,12.90
2013,09,29,10,28,11.30
2013,09,29,10,29,19.30
2013,09,29,10,30,16.10
2013,09,29,10,31,14.50
2013,09,29,10,32,12.90
2013,09,29,10,33,22.50
2013,09,29,10,34,22.50
2013,09,29,10,35,22.50
2013,09,29,10,36,20.90
2013,09,29,10,37,20.90
2013,09,29,10,38,19.30
2013,09,29,10,39,16.10
2013,09,29,10,40,11.30
2013,09,29,10,41,19.30
2013,09,29,10,42,19.30
2013,09,29,10,43,22.50
2013,09,29,10,44,14.50
2013,09,29,10,45,12.90
2013,09,29,10,46,20.90
2013,09,29,10,47,24.20
2013,09,29,10,48,20.90
2013,09,29,10,49,17.70
2013,09,29,10,50,19.30
2013,09,29,10,51,12.90
2013,09,29,10,52,32.20
2013,09,29,10,53,24.20
2013,09,29,10,54,27.40
2013,09,29,10,55,17.70
2013,09,29,10,56,16.10
2013,09,29,10,57,19.30
2013,09,29,10,58,19.30
2013,09,29,10,59,17.70
2013,09,29,11,00,14.50
2013,09,29,11,01,16.10
2013,09,29,11,02,29.00
2013,09,29,11,03,20.90
2013,09,29,11,04,22.50
2013,09,29,11,05,27.40
2013,09,29,11,06,22.50
2013,09,29,11,07,16.10
2013,09,29,11,08,20.90
2013,09,29,11,09,14.50
2013,09,29,11,10,12.90
2013,09,29,11,11,19.30
2013,09,29,11,12,14.50
2013,09,29,11,13,20.90
2013,09,29,11,14,14.50
2013,09,29,11,15,16.10
2013,09,29,11,16,14.50
2013,09,29,11,17,9.60
2013,09,29,11,18,9.60
2013,09,29,11,19,14.50
2013,09,29,11,20,14.50
2013,09,29,11,21,14.50
2013,09,29,11,22,17.70
2013,09,29,11,23,16.10
2013,09,29,11,24,24.20
2013,09,29,11,25,22.50
2013,09,29,11,26,17.70
2013,09,29,11,27,29.00
2013,09,29,11,28,29.00
2013,09,29,11,29,19.30
2013,09,29,11,30,24.20
2013,09,29,11,31,19.30
2013,09,29,11,32,19.30
2013,09,29,11,33,16.10
2013,09,29,11,34,25.70
2013,09,29,11,35,17.70
2013,09,29,11,36,20.90
2013,09,29,11,37,16.10
2013,09,29,11,38,17.70
2013,09,29,11,39,14.50
2013,09,29,11,40,11.30
2013,09,29,11,41,9.60
2013,09,29,11,42,8.10
2013,09,29,11,43,8.10
2013,09,29,11,44,6.40
2013,09,29,11,45,6.40
2013,09,29,11,46,8.10
2013,09,29,11,47,6.40
2013,09,29,11,48,4.80
2013,09,29,11,49,6.40
2013,09,29,11,50,6.40
2013,09,29,11,51,6.40
2013,09,29,11,52,4.80
2013,09,29,11,53,6.40
2013,09,29,11,54,6.40
2013,09,29,11,55,4.80
2013,09,29,11,56,9.60
2013,09,29,11,57,9.60
2013,09,29,11,58,6.40
2013,09,29,11,59,9.60
2013,09,29,12,00,6.40
2013,09,29,12,01,8.10
2013,09,29,12,02,6.40
2013,09,29,12,03,3.20
2013,09,29,12,04,3.20
2013,09,29,12,05,1.60
2013,09,29,12,06,3.20
2013,09,29,12,07,3.20
2013,09,29,12,08,4.80
2013,09,29,12,09,3.20
2013,09,29,12,10,1.60
2013,09,29,12,11,3.20
2013,09,29,12,12,3.20
2013,09,29,12,13,6.40
2013,09,29,12,14,6.40
2013,09,29,12,15,3.20
2013,09,29,12,16,4.80
2013,09,29,12,17,9.60
2013,09,29,12,18,6.40
2013,09,29,12,19,4.80
2013,09,29,12,20,4.80
2013,09,29,12,21,4.80
2013,09,29,12,22,3.20
2013,09,29,12,23,3.20
2013,09,29,12,24,4.80
2013,09,29,12,25,4.80
2013,09,29,12,26,4.80
2013,09,29,12,27,4.80
2013,09,29,12,28,3.20
2013,09,29,12,29,4.80
2013,09,29,12,30,4.80
2013,09,29,12,31,3.20
2013,09,29,12,32,1.60
2013,09,29,12,33,4.80
2013,09,29,12,34,6.40
2013,09,29,12,35,6.40
2013,09,29,12,36,3.20
2013,09,29,12,37,9.60
2013,09,29,12,38,6.40
2013,09,29,12,39,6.40
2013,09,29,12,40,4.80
2013,09,29,12,41,3.20
2013,09,29,12,42,8.10
2013,09,29,12,43,8.10
2013,09,29,12,44,8.10
2013,09,29,12,45,9.60
2013,09,29,12,46,14.50
2013,09,29,12,47,12.90
2013,09,29,12,48,22.50
2013,09,29,12,49,19.30
2013,09,29,12,50,19.30
2013,09,29,12,51,17.70
2013,09,29,12,52,16.10
2013,09,29,12,53,20.90
2013,09,29,12,54,22.50
2013,09,29,12,55,17.70
2013,09,29,12,56,24.20
2013,09,29,12,57,19.30
2013,09,29,12,58,17.70
2013,09,29,12,59,19.30
2013,09,29,13,00,19.30
2013,09,29,13,01,12.90
2013,09,29,13,02,14.50
2013,09,29,13,03,19.30
2013,09,29,13,04,16.10
2013,09,29,13,05,16.10
2013,09,29,13,06,16.10
2013,09,29,13,07,16.10
2013,09,29,13,08,14.50
2013,09,29,13,09,16.10
2013,09,29,13,10,19.30
2013,09,29,13,11,20.90
2013,09,29,13,12,19.30
2013,09,29,13,13,27.40
2013,09,29,13,14,22.50
2013,09,29,13,15,24.20
2013,09,29,13,16,24.20
2013,09,29,13,17,22.50
2013,09,29,13,18,19.30
2013,09,29,13,19,20.90
2013,09,29,13,20,16.10
2013,09,29,13,21,22.50
2013,09,29,13,22,16.10
2013,09,29,13,23,20.90
2013,09,29,13,24,17.70
2013,09,29,13,25,17.70
2013,09,29,13,26,25.70
2013,09,29,13,27,24.20
2013,09,29,13,28,22.50
2013,09,29,13,29,19.30
2013,09,29,13,30,14.50
2013,09,29,13,31,19.30
2013,09,29,13,32,19.30
2013,09,29,13,33,16.10
2013,09,29,13,34,17.70
2013,09,29,13,35,16.10
2013,09,29,13,36,19.30
2013,09,29,13,37,16.10
2013,09,29,13,38,25.70
2013,09,29,13,39,20.90
2013,09,29,13,40,16.10
2013,09,29,13,41,19.30
2013,09,29,13,42,25.70
2013,09,29,13,43,25.70
2013,09,29,13,44,19.30
2013,09,29,13,45,19.30
2013,09,29,13,46,20.90
2013,09,29,13,47,12.90
2013,09,29,13,48,17.70
2013,09,29,13,49,19.30
2013,09,29,13,50,22.50
2013,09,29,13,51,19.30
2013,09,29,13,52,16.10
2013,09,29,13,53,12.90
2013,09,29,13,54,17.70
2013,09,29,13,55,19.30
2013,09,29,13,56,16.10
2013,09,29,13,57,16.10
2013,09,29,13,58,11.30
2013,09,29,13,59,8.10
2013,09,29,14,00,11.30
2013,09,29,14,01,20.90
2013,09,29,14,02,16.10
2013,09,29,14,03,9.60
2013,09,29,14,04,11.30
2013,09,29,14,05,8.10
2013,09,29,14,06,17.70
2013,09,29,14,07,17.70
2013,09,29,14,08,20.90
2013,09,29,14,09,20.90
2013,09,29,14,10,17.70
2013,09,29,14,11,25.70
2013,09,29,14,12,22.50
2013,09,29,14,13,25.70
2013,09,29,14,14,24.20
2013,09,29,14,15,20.90
2013,09,29,14,16,16.10
2013,09,29,14,17,17.70
2013,09,29,14,18,12.90
2013,09,29,14,19,14.50
2013,09,29,14,20,17.70
2013,09,29,14,21,24.20
2013,09,29,14,22,29.00
2013,09,29,14,23,20.90
2013,09,29,14,24,27.40
2013,09,29,14,25,29.00
2013,09,29,14,26,20.90
2013,09,29,14,27,30.60
2013,09,29,14,28,22.50
2013,09,29,14,29,29.00
2013,09,29,14,30,29.00
2013,09,29,14,31,25.70
2013,09,29,14,32,29.00
2013,09,29,14,33,33.80
2013,09,29,14,34,29.00
2013,09,29,14,35,33.80
2013,09,29,14,36,19.30
2013,09,29,14,37,24.20
2013,09,29,14,38,24.20
2013,09,29,14,39,29.00
2013,09,29,14,40,20.90
2013,09,29,14,41,20.90
2013,09,29,14,42,17.70
2013,09,29,14,43,20.90
2013,09,29,14,44,11.30
2013,09,29,14,45,24.20
2013,09,29,14,46,41.80
2013,09,29,14,47,33.80
2013,09,29,14,48,30.60
2013,09,29,14,49,35.40
2013,09,29,14,50,33.80
2013,09,29,14,51,30.60
2013,09,29,14,52,25.70
2013,09,29,14,53,30.60
2013,09,29,14,54,32.20
2013,09,29,14,55,25.70
2013,09,29,14,56,32.20
2013,09,29,14,57,33.80
2013,09,29,14,58,22.50
2013,09,29,14,59,24.20
2013,09,29,15,00,32.20
2013,09,29,15,01,27.40
2013,09,29,15,02,24.20
2013,09,29,15,03,33.80
2013,09,29,15,04,27.40
2013,09,29,15,05,20.90
2013,09,29,15,06,20.90
2013,09,29,15,07,25.70
2013,09,29,15,08,27.40
2013,09,29,15,09,24.20
2013,09,29,15,10,30.60
2013,09,29,15,11,27.40
2013,09,29,15,12,30.60
2013,09,29,15,13,19.30
2013,09,29,15,14,27.40
2013,09,29,15,15,33.80
2013,09,29,15,16,20.90
2013,09,29,15,17,29.00
2013,09,29,15,18,17.70
2013,09,29,15,19,22.50
2013,09,29,15,20,25.70
2013,09,29,15,21,37.00
2013,09,29,15,22,24.20
2013,09,29,15,23,29.00
2013,09,29,15,24,27.40
2013,09,29,15,25,22.50
2013,09,29,15,26,29.00
2013,09,29,15,27,22.50
2013,09,29,15,28,16.10
2013,09,29,15,29,27.40
2013,09,29,15,30,19.30
2013,09,29,15,31,24.20
2013,09,29,15,32,30.60
2013,09,29,15,33,29.00
2013,09,29,15,34,30.60
2013,09,29,15,35,30.60
2013,09,29,15,36,25.70
2013,09,29,15,37,27.40
2013,09,29,15,38,35.40
2013,09,29,15,39,35.40
2013,09,29,15,40,30.60
2013,09,29,15,41,19.30
2013,09,29,15,42,32.20
2013,09,29,15,43,32.20
2013,09,29,15,44,24.20
2013,09,29,15,45,29.00
2013,09,29,15,46,32.20
2013,09,29,15,47,30.60
2013,09,29,15,48,32.20
2013,09,29,15,49,16.10
2013,09,29,15,50,30.60
2013,09,29,15,51,27.40
2013,09,29,15,52,24.20
2013,09,29,15,53,22.50
2013,09,29,15,54,24.20
2013,09,29,15,55,22.50
2013,09,29,15,56,25.70
2013,09,29,15,57,25.70
2013,09,29,15,58,25.70
2013,09,29,15,59,27.40
2013,09,29,16,00,24.20
2013,09,29,16,01,25.70
2013,09,29,16,02,24.20
2013,09,29,16,03,30.60
2013,09,29,16,04,27.40
2013,09,29,16,05,19.30
2013,09,29,16,06,17.70
2013,09,29,16,07,20.90
2013,09,29,16,08,24.20
2013,09,29,16,09,30.60
2013,09,29,16,10,32.20
2013,09,29,16,11,35.40
2013,09,29,16,12,24.20
2013,09,29,16,13,38.60
2013,09,29,16,14,33.80
2013,09,29,16,15,25.70
2013,09,29,16,16,35.40
2013,09,29,16,17,33.80
2013,09,29,16,18,38.60
2013,09,29,16,19,27.40
2013,09,29,16,20,33.80
2013,09,29,16,21,29.00
2013,09,29,16,22,33.80
2013,09,29,16,23,24.20
2013,09,29,16,24,22.50
2013,09,29,16,25,22.50
2013,09,29,16,26,32.20
2013,09,29,16,27,20.90
2013,09,29,16,28,27.40
2013,09,29,16,29,33.80
2013,09,29,16,30,27.40
2013,09,29,16,31,20.90
2013,09,29,16,32,30.60
2013,09,29,16,33,30.60
2013,09,29,16,34,29.00
2013,09,29,16,35,35.40
2013,09,29,16,36,20.90
2013,09,29,16,37,29.00
2013,09,29,16,38,33.80
2013,09,29,16,39,32.20
2013,09,29,16,40,27.40
2013,09,29,16,41,24.20
2013,09,29,16,42,30.60
2013,09,29,16,43,20.90
2013,09,29,16,44,27.40
2013,09,29,16,45,27.40
2013,09,29,16,46,32.20
2013,09,29,16,47,27.40
2013,09,29,16,48,25.70
2013,09,29,16,49,38.60
2013,09,29,16,50,29.00
2013,09,29,16,51,27.40
2013,09,29,16,52,33.80
2013,09,29,16,53,32.20
2013,09,29,16,54,27.40
2013,09,29,16,55,30.60
2013,09,29,16,56,25.70
2013,09,29,16,57,29.00
2013,09,29,16,58,30.60
2013,09,29,16,59,29.00
2013,09,29,17,00,29.00
2013,09,29,17,01,38.60
2013,09,29,17,02,33.80
2013,09,29,17,03,41.80
2013,09,29,17,04,40.20
2013,09,29,17,05,33.80
2013,09,29,17,06,32.20
2013,09,29,17,07,38.60
2013,09,29,17,08,37.00
2013,09,29,17,09,43.50
2013,09,29,17,10,57.90
2013,09,29,17,11,57.90
2013,09,29,17,12,45.10
2013,09,29,17,13,41.80
2013,09,29,17,14,45.10
2013,09,29,17,15,46.70
2013,09,29,17,16,41.80
2013,09,29,17,17,40.20
2013,09,29,17,18,33.80
2013,09,29,17,19,41.80
2013,09,29,17,20,37.00
2013,09,29,17,21,40.20
2013,09,29,17,22,33.80
2013,09,29,17,23,41.80
2013,09,29,17,24,32.20
2013,09,29,17,25,41.80
2013,09,29,17,26,56.30
2013,09,29,17,27,51.50
2013,09,29,17,28,45.10
2013,09,29,17,29,27.40
2013,09,29,17,30,25.70
2013,09,29,17,31,27.40
2013,09,29,17,32,40.20
2013,09,29,17,33,43.50
2013,09,29,17,34,35.40
2013,09,29,17,35,37.00
2013,09,29,17,36,35.40
2013,09,29,17,37,37.00
2013,09,29,17,38,30.60
2013,09,29,17,39,29.00
2013,09,29,17,40,43.50
2013,09,29,17,41,43.50
2013,09,29,17,42,43.50
2013,09,29,17,43,38.60
2013,09,29,17,44,40.20
2013,09,29,17,45,48.30
2013,09,29,17,46,41.80
2013,09,29,17,47,46.70
2013,09,29,17,48,48.30
2013,09,29,17,49,25.70
2013,09,29,17,50,22.50
2013,09,29,17,51,41.80
2013,09,29,17,52,37.00
2013,09,29,17,53,41.80
2013,09,29,17,54,45.10